Location: Tierra del Sol
(32.6128°N, 116.3319°W)
Time: 18:14:28
(UTC-07:00)

Vanguard 1 - Visible Passes

Search period start: 26 April 2018 00:00
Search period end: 06 May 2018 00:00
Orbit: 650 x 3833 km, 34.2° (Epoch: 25 April)

Date Brightness Start Highest point End Pass type
(mag) Time Alt. Az. Time Alt. Az. Time Alt. Az.
26 Apr 10.6 03:45:36 49° SSW 03:45:42 49° SSW 03:56:09 10° SE visible
26 Apr 9.9 21:00:38 10° SW 21:05:50 37° SSE 21:05:50 37° SSE visible
27 Apr 12.7 01:53:16 11° ESE 01:53:16 11° ESE 01:53:26 10° ESE visible
27 Apr 11.0 04:06:03 37° SW 04:06:51 38° SSW 04:16:52 10° SE visible
27 Apr 9.6 21:21:22 10° WSW 21:26:15 50° S 21:26:15 50° S visible
28 Apr 12.6 02:13:46 13° ESE 02:13:46 13° ESE 02:14:43 10° ESE visible
28 Apr 11.4 04:26:32 27° SW 04:28:03 28° SSW 04:37:10 10° SSE visible
28 Apr 9.8 21:42:21 10° WSW 21:46:35 50° SW 21:46:35 50° SW visible
29 Apr 12.4 02:34:19 15° SE 02:34:19 15° SE 02:35:49 10° SE visible
29 Apr 11.8 04:47:06 18° SW 04:49:18 20° SSW 04:56:51 10° SSE visible
29 Apr 10.7 19:41:50 10° SW 19:48:33 33° SSE 19:53:05 10° E visible
29 Apr 10.4 22:03:27 10° WSW 22:06:52 38° W 22:06:52 38° W visible
30 Apr 12.4 02:54:55 15° SE 02:54:55 15° SE 02:56:40 10° SE visible
30 Apr 12.1 05:07:43 11° SW 05:10:39 13° SSW 05:15:21 10° S visible
30 Apr 10.2 20:02:29 10° SW 20:09:34 46° SSE 20:14:14 10° E visible
30 Apr 11.0 22:24:37 10° W 22:27:06 27° W 22:27:06 27° W visible
01 May 12.4 03:15:33 14° SSE 03:15:33 14° SSE 03:17:08 10° SSE visible
01 May 9.8 20:23:26 10° WSW 20:30:33 62° SSE 20:34:31 15° E visible
01 May 11.6 22:45:48 10° W 22:47:16 19° W 22:47:16 19° W visible
02 May 12.5 03:36:12 12° SSE 03:36:12 12° SSE 03:37:05 10° SSE visible
02 May 9.5 20:44:36 10° WSW 20:51:30 80° SSE 20:54:38 22° E visible
02 May 12.0 23:06:56 10° W 23:07:22 12° W 23:07:22 12° W visible
03 May 9.5 21:05:54 10° W 21:12:29 85° N 21:14:42 33° ENE visible
04 May 9.5 21:27:14 10° W 21:33:29 76° N 21:34:43 50° ENE visible
05 May 9.4 21:48:34 10° W 21:54:30 73° N 21:54:41 72° NNE visible
